Tracking 25612 objects as of 20-May-2022
HD Live streaming from Space Station
objects crossing your sky now

GUNSMOKE-J 4

Track GUNSMOKE-J 4 now!
10-day predictions


NORAD ID: 48878
Int'l Code: 2021-058H
Perigee: 476.5 km
Apogee: 540.0 km
Inclination: 60.7 °
Period: 94.6 minutes
Semi major axis: 6879 km
RCS: Unknown
Launch date: June 30, 2021
Source: United States (US)
Launch site: Pegasus launched from Western Range Air Space (WRAS)
aabbcc
Your satellite tracking list
Your tracking list is empty




NASA's NSSDC Master Catalog

Two Line Element Set (TLE):
1 48878U 21058H   22139.91864073  .00012209  00000-0  53330-3 0  9997
2 48878  60.6863  97.5031 0046153 137.7001 258.6055 15.21566710 49120
Source of the keplerian elements: AFSPC